Location: *
(49.6619°S, 177.4603°W)
Time: 05:05:20
(UTC+00:00)

Cosmos 1151 Rocket - Pass Details

Date: 31 January 2023
Orbit: 590 x 614 km, 82.5° (Epoch: 01 April)

Event Time Altitude Azimuth Distance (km) Brightness Sun altitude
Exits shadow 11:39:02 76° 21° (NNE) 643 2.9 -22.7°
Maximum altitude 11:39:20 83° 80° (E) 629 2.9 -22.8°
Drops below altitude 10° 11:43:45 10° 169° (SSE) 1,990 6.7 -22.8°
Sets 11:45:59 0° 169° (S) 2,898 7.8 -22.9°
